Weather in Peschanskoye

Russia / Kurgan Oblast     55°40′42″N   62°41′57″E
temp.,
°C
wind,
m/s
gust,
m/s
humid.,
%
clouds,
%
prec.,
mm/h
press.,
hPa
HPBL,
m
13 may, thu
thu1323:00+16e125611 0.0 102711
02:00+14s115850 0.0 102710
05:00+13wsw226441 0.0 102716
08:00+19w35518 0.0 1026295
11:00+24wnw453571 0.0 10251227
14:00+26nw562910 0.0 10252003
17:00+27nnw56265 0.0 10242281
20:00+22n22425 0.0 102415
14 may, fri
fri1423:00+19wnw114635 0.0 102511
02:00+17ese22525 0.0 102611
05:00+16ssw22557 0.0 102711
08:00+22sw23435 0.0 1027229
11:00+27sw45315 0.0 10261497
14:00+29wsw45275 0.0 10242734
17:00+29w46265 0.0 10233010
20:00+26ssw223696 0.0 102213
15 may, sat
sat1523:00+20wnw33481 0.7 102329
02:00+18wnw3352100 0.0 102338
05:00+16wnw34585 0.0 102440
08:00+22w46495 0.0 1024288
11:00+27w5634100 0.0 10231143
14:00+29w68267 0.0 10212437
17:00+30wnw6826100 0.0 10202814
20:00+24wnw4104161 0.0 1020223
16 may, sun
sun1623:00+20wnw4114758 0.0 1020164
02:00+18nw48538 0.0 1021131
05:00+16wnw346432 0.0 102251
08:00+22w344886 0.0 1022273
11:00+28w45335 0.0 1021973
14:00+30w56255 0.0 10202088
17:00+31w46225 0.0 10193016
20:00+26wsw333617 0.0 101820
17 may, mon
mon1723:00+22wnw463933 0.0 101877
02:00+20w46475 0.0 101986
05:00+18w46521 0.0 101981
08:00+24wsw47425 0.0 1019264
11:00+28w69293 0.0 10182056
14:00+30w792442 0.0 10163486
17:00+30w6102437 0.0 10153265
20:00+24wnw51238100 0.0 1015282